sat.trackr.live / text

‹ back to catalog

STARLINK-5932

NORAD 55943 · 2023-037AF

PAYLOAD ACTIVE UNKNOWN

§ Identity

Operator
Country
US
Launch date
2023-03-17
Launch site
AFWTR
Launch vehicle
Mass (kg)
RCS (m²)

Purposes: comms

External: N2YO · Heavens-Above · Gunter

§ Orbital elements

Epoch: 2026-05-25T03:14:43.338912Z

Period
96.11 min
Inclination
69.9997°
Eccentricity
0.0003115
Mean motion
14.98331469 rev/d
Perigee alt
569.9 km
Apogee alt
574.2 km
Semi-major
6,950.2 km
B*
1.3790e-5
RAAN
91.5959°
Arg perigee
269.4800°
Mean anomaly
90.6002°
Rev number
17,543

§ Raw data

STARLINK-59321 55943U 23037AF  26145.13522383  .00000072  00000+0  13790-4 0  99982 55943  69.9997  91.5959 0003115 269.4800  90.6002 14.98331469175439

JSON: /api/v1/satellites/55943 · /tle

For live sub-satellite position, see the globe view (requires WebGL).

§ Visibility from observer

Set your observer location to see the next 7 days of passes ≥ 10°. The values pass through the URL so the page stays shareable.

No JS? Fill the form by hand. The geolocation button needs JavaScript.